Regional Weather Roundup
Issued by NWS

Home | Current Version | Previous Version | Graphics & Text | Print | Product List | Glossary On
Versions: 1 2 3 4 5 6 7 8 9 10 11 12 13 14 15 16 17 18 19 20 21 22 23 24 25 26 27 28 29 30 31 32 33 34 35 36 37 38 39 40 41 42 43 44 45 46 47 48 49 50
890
ASUS45 KBOU 231707
RWRCO

WEATHER ROUNDUP FOR COLORADO
NATIONAL WEATHER SERVICE DENVER/BOULDER CO
1100 AM MDT SAT SEP 23 2017

NOTE: "FAIR" INDICATES FEW OR NO CLOUDS BELOW 12000 FEET WITH NO
SIGNIFICANT WEATHER AND/OR OBSTRUCTIONS TO VISIBILITY.

COZ001>005-013-030-031-231800-
...NORTHWEST COLORADO...

CITY           SKY/WX    TMP DP  RH WIND       PRES   REMARKS
CRAIG          LGT RAIN  48  41  76 SE23      29.94F
HAYDEN         LGT RAIN  44  43  96 SE9       30.01S
MEEKER         LGT RAIN  48  43  82 E10       29.94S
RABBIT EARS PA FOG       36  34  93 N7        30.09S VSB 1/2
STEAMBOAT SPGS CLOUDY    44  40  88 NW10G17   30.00R
WALDEN         PTSUNNY   50  37  62 N21G26    30.00F
$$

COZ006>008-011-231800-
...WEST CENTRAL VALLEYS...

CITY           SKY/WX    TMP DP  RH WIND       PRES   REMARKS
GRAND JUNCTION CLOUDY    55  45  68 SE20      29.88R
MONTROSE       LGT RAIN  50  48  93 N3        29.97S FOG
EAGLE          CLOUDY    55  40  56 W10       29.97R
RIFLE          LGT RAIN  50  48  93 E3        29.96S
DELTA          NOT AVBL
NUCLA          LGT RAIN  50  45  81 E9        29.94F
$$

COZ017>023-064>068-231800-
...SOUTHWEST COLORADO...

CITY           SKY/WX    TMP DP  RH WIND       PRES   REMARKS
DURANGO        CLOUDY    61  45  55 W22G30    29.94S
CORTEZ         LGT RAIN  51  47  86 SW8       29.94R
PAGOSA SPRINGS TSTM      57  44  61 CALM      30.01S
TELLURIDE      NOT AVBL
WOLF CREEK PAS TSTM      34  34 100 S32G45    30.19S VSB 1/4 WCI  20
$$

COZ009-010-012-014-032>034-037-058>063-231800-
...CENTRAL COLORADO...

CITY           SKY/WX    TMP DP  RH WIND       PRES   REMARKS
ASPEN          LGT RAIN  47  42  83 NW8       29.99R
BUENA VISTA    PTSUNNY   56  45  64 SE14      30.01F
COPPER MTN     FAIR      52  30  43 SE31G43   30.12F
BERTHOUD PASS  CLOUDY    34  27  75 SE37G48   30.20S WCI  19
COTTONWOOD PAS CLOUDY    52  45  76 SE17G28   30.10S
GUNNISON       FAIR      62  39  42 SW13      29.91S
KREMMLING      CLOUDY    55  39  54 CALM      29.95S
LEADVILLE      PTSUNNY   52  33  48 S21G33    30.03F
MONARCH PASS   DRIZZLE   41  36  81 S16G28    30.31R
SALIDA         PTSUNNY   63  45  51 S10G18    30.07S
SUNLIGHT       SNOW      32  32 100 MISG      30.11S VSB 1/4
WILKERSON PASS CLOUDY    43  36  75 S10G17    30.23S
$$

COZ069>075-231800-
...SAN LUIS VALLEY/SANGRE DE CRISTO MOUNTAINS...

CITY           SKY/WX    TMP DP  RH WIND       PRES   REMARKS
ALAMOSA        PTSUNNY   65  43  44 S20G26    29.98F
DEL NORTE      CLOUDY    53  46  76 NE6       30.02F THUNDER
LA VETA PASS   CLOUDY    52  36  54 SE23G32   30.26F
SAGUACHE       FAIR      55  45  67 SE5       30.02F
$$

COZ035-036-038>040-231800-
...NORTHERN COLORADO FRONT RANGE...

CITY           SKY/WX    TMP DP  RH WIND       PRES   REMARKS
DENVER INTL AP CLOUDY    50  43  77 E3        30.00S
DMNS CITY PARK   N/A     51  42  70 E7G39     30.00R
AURORA         CLOUDY    48  43  83 NE3       30.02R
FRONT RANGE AP CLOUDY    50  45  81 CALM      30.02R
ERIE MUNI ARPT PTSUNNY   55  42  62 CALM      30.04F
BOULDER MUN AP CLOUDY    52  41  66 SE6       29.99S
CENTENNIAL     CLOUDY    49  42  77 NE5       30.01R
BROOMFIELD     CLOUDY    50  43  76 NE5       30.01S
FORT COLLINS   CLOUDY    53  42  66 E8        30.00S
LONGMONT       CLOUDY    55  42  61 NE6       30.00S HAZE
$$

COZ041-046-047-076>085-087-088-231800-
...PIKES PEAK/PALMER DIVIDE AND SOUTHERN FOOTHILLS...

CITY           SKY/WX    TMP DP  RH WIND       PRES   REMARKS
COLO. SPRINGS  CLOUDY    54  43  66 E12       30.02R
A. F. ACADEMY  CLOUDY    57  40  53 S9        30.01R
SCHRIEVER AFB  PTSUNNY   51  45  80 E7        30.02F
CHEYENNE MTN   CLOUDY    53  43  68 SE8       29.99S
ELLICOTT       LGT RAIN N/A N/A N/A E16       29.99F
FALCON         CLOUDY    51  41  67 E7        30.06R
FORT CARSON    CLOUDY    56  42  59 E3        29.99S
LIMON            N/A    N/A N/A N/A MISG      30.08R
MONUMENT HILL  PTSUNNY   46  37  71 E8        30.07R
CANON CITY     PTSUNNY   63  45  51 NE10      29.95F
WALSENBURG     FAIR      63  46  55 CALM      29.96S
TRINIDAD       CLOUDY    61  54  77 S6        29.94F
$$

COZ042>045-048>051-090-091-231800-
...NORTHEAST COLORADO...

CITY           SKY/WX    TMP DP  RH WIND       PRES   REMARKS
GREELEY ARPT   CLOUDY    49  42  77 NE8       30.00F
AKRON          RAIN      45  43  93 E13       30.00R FOG
BURLINGTON     CLOUDY    53  47  79 W18       30.05R
WRAY           CLOUDY    50  50 100 N7        29.97R FOG
YUMA           TSTM      45  45 100 NW20      29.94F VSB 1/4
STERLING       RAIN      46  46 100 E7        30.00S
HOLYOKE        CLOUDY    52  48  87 N10       29.96F FOG
FORT MORGAN    CLOUDY    49  41  73 E8        30.03R
$$

COZ086-089-092>099-231800-
...SOUTHEAST COLORADO...

CITY           SKY/WX    TMP DP  RH WIND       PRES   REMARKS
PUEBLO         FAIR      59  45  59 NE6       29.91F
LA JUNTA       TSTM      55  54  96 NE7       29.90F FOG
LAMAR          PTSUNNY   66  52  60 N13       29.92R
SPRINGFIELD      N/A     72  64  76 S12       29.94S
$$




USA.gov is the U.S. government's official web portal to all federal, state and local government web resources and services.